Date,TemperatureHighF,TemperatureAvgF,TemperatureLowF,DewpointHighF,DewpointAvgF,DewpointLowF,HumidityHigh,HumidityAvg,HumidityLow,PressureMaxIn,PressureMinIn,WindSpeedMaxMPH,WindSpeedAvgMPH,GustSpeedMaxMPH,PrecipitationSumIn
2013-9-1,88,75,65,74,68,62,98,80,50,29.83,29.72,21,4,21,0.02
2013-9-2,79,68,57,66,60,54,94,77,50,29.98,29.82,20,5,20,0.00
2013-9-3,78,65,53,62,57,51,96,78,51,30.09,29.98,10,2,10,0.00
2013-9-4,85,67,50,65,57,48,96,73,39,30.15,30.04,11,1,11,0.00
2013-9-5,87,73,59,70,63,57,94,73,50,30.18,30.11,9,1,9,0.00
2013-9-6,86,73,58,67,62,55,91,70,49,30.16,29.99,12,2,12,0.00
2013-9-7,87,76,64,72,67,61,93,75,54,30.00,29.86,15,2,15,0.00
2013-9-8,86,77,70,73,70,68,93,79,62,29.95,29.85,18,3,19,0.01
2013-9-9,95,82,71,77,72,69,96,76,50,29.89,29.81,16,4,16,0.00
2013-9-10,94,82,69,72,68,64,86,65,42,30.01,29.89,22,3,22,0.00
2013-9-11,90,80,73,73,68,65,84,70,51,30.05,29.98,23,4,23,0.00
2013-9-12,80,72,56,70,61,49,95,71,38,30.08,29.98,26,7,26,0.91
2013-9-13,70,59,48,51,46,38,93,67,32,30.18,30.06,16,5,16,0.00
2013-9-14,73,57,43,50,46,41,95,69,33,30.19,30.01,14,2,14,0.00
2013-9-15,66,59,52,62,54,47,94,84,70,30.16,29.97,17,4,17,0.11
2013-9-16,70,60,54,56,53,48,96,79,56,30.32,30.15,15,5,15,0.00
2013-9-17,74,62,50,60,54,47,94,78,57,30.29,30.08,14,2,14,0.00
2013-9-18,84,73,61,72,65,56,89,77,63,30.08,29.88,15,4,17,0.05
2013-9-19,89,78,67,74,70,64,95,77,56,29.92,29.75,32,5,32,0.58
2013-9-20,70,66,56,67,60,51,97,84,56,29.89,29.78,23,6,23,0.08
2013-9-21,69,58,49,55,51,47,93,79,50,29.94,29.86,17,6,17,0.00
2013-9-22,71,58,44,54,48,42,96,75,40,30.05,29.94,9,1,9,0.01
2013-9-23,74,60,46,54,49,44,92,68,41,30.07,29.95,15,4,15,0.00
2013-9-24,76,63,50,59,53,47,91,72,51,29.98,29.84,13,4,13,0.00
2013-9-25,79,65,53,63,56,50,90,72,51,29.91,29.85,12,3,12,0.00
2013-9-26,82,68,54,64,56,51,91,70,48,30.03,29.91,14,3,16,0.00
2013-9-27,82,68,55,62,54,50,83,62,35,30.11,29.99,20,4,22,0.00
2013-9-28,81,68,57,68,60,53,94,78,55,30.02,29.88,24,5,24,0.63
2013-9-29,71,59,48,56,49,43,97,75,37,30.07,29.98,13,3,13,0.00
2013-9-30,77,61,44,60,52,42,96,74,44,29.99,29.85,16,2,16,0.00